Tracking 29091 objects as of 17-Jul-2024
HD Live streaming from Space Station
objects crossing your sky now

STARLINK-5960

Track STARLINK-5960 now!
10-day predictions
STARLINK-5960 is classified as:


NORAD ID: 56920
Int'l Code: 2023-083AW
Perigee: 565.1 km
Apogee: 567.3 km
Inclination: 43.0 °
Period: 95.8 minutes
Semi major axis: 6937 km
RCS: Unknown
Launch date: June 12, 2023
Source: United States (US)
Launch site: AIR FORCE EASTERN TEST RANGE (AFETR)
Your satellite tracking list
Your tracking list is empty




NASA's NSSDC Master Catalog

Two Line Element Set (TLE):
1 56920U 23083AW  24199.40589157  .00000965  00000-0  86473-4 0  9994
2 56920  43.0045  90.4167 0001625 273.3718  86.6939 15.02540718 60721
Source of the keplerian elements: AFSPC